Time,TemperatureF,DewpointF,PressureIn,WindDirection,WindDirectionDegrees,WindSpeedMPH,WindSpeedGustMPH,Humidity,HourlyPrecipIn,Conditions,Clouds,dailyrainin,SoftwareType,DateUTC
2013-03-26 00:00:00,37.6,23.7,29.83,West,268,2.0,7.0,57,0.00,,,0.02,meteohub,2013-03-26 04:00:00,
2013-03-26 00:01:00,37.6,23.7,29.83,SW,236,4.0,7.0,57,0.00,,,0.02,meteohub,2013-03-26 04:01:00,
2013-03-26 00:06:00,37.6,23.4,29.83,WSW,256,5.0,5.0,56,0.00,,,0.00,meteohub,2013-03-26 04:06:00,
2013-03-26 00:12:00,37.6,23.7,29.83,West,280,4.0,7.0,57,0.00,,,0.00,meteohub,2013-03-26 04:12:00,
2013-03-26 00:17:00,37.8,23.5,29.83,WSW,252,5.0,7.0,56,0.00,,,0.00,meteohub,2013-03-26 04:17:00,
2013-03-26 00:22:00,37.8,23.5,29.83,West,279,5.0,8.0,56,0.00,,,0.00,meteohub,2013-03-26 04:22:00,
2013-03-26 00:27:00,37.8,23.5,29.83,WNW,297,5.0,8.0,56,0.00,,,0.00,meteohub,2013-03-26 04:27:00,
2013-03-26 00:32:00,37.9,23.7,29.83,SSW,211,3.0,8.0,56,0.00,,,0.00,meteohub,2013-03-26 04:32:00,
2013-03-26 00:37:00,37.9,23.7,29.83,West,259,1.0,8.0,56,0.00,,,0.00,meteohub,2013-03-26 04:37:00,
2013-03-26 00:42:00,37.9,24.1,29.84,WNW,290,4.0,7.0,57,0.00,,,0.00,meteohub,2013-03-26 04:42:00,
2013-03-26 00:47:00,37.9,24.1,29.84,West,271,2.0,10.0,57,0.00,,,0.00,meteohub,2013-03-26 04:47:00,
2013-03-26 00:52:00,37.9,23.7,29.84,WNW,286,1.0,10.0,56,0.00,,,0.00,meteohub,2013-03-26 04:52:00,
2013-03-26 00:57:00,37.9,23.7,29.83,WNW,288,2.0,10.0,56,0.00,,,0.00,meteohub,2013-03-26 04:57:00,
2013-03-26 01:02:00,37.9,24.1,29.84,SW,235,4.0,6.0,57,0.00,,,0.00,meteohub,2013-03-26 05:02:00,
2013-03-26 01:08:00,37.9,24.1,29.84,WSW,246,2.0,6.0,57,0.00,,,0.00,meteohub,2013-03-26 05:08:00,
2013-03-26 01:13:00,37.9,24.1,29.84,WSW,254,3.0,6.0,57,0.00,,,0.00,meteohub,2013-03-26 05:13:00,
2013-03-26 01:18:00,37.8,24.3,29.84,WSW,248,4.0,6.0,58,0.00,,,0.00,meteohub,2013-03-26 05:18:00,
2013-03-26 01:23:00,37.8,24.3,29.84,WSW,238,0.0,9.0,58,0.00,,,0.00,meteohub,2013-03-26 05:23:00,
2013-03-26 01:28:00,37.8,24.3,29.84,West,263,5.0,9.0,58,0.00,,,0.00,meteohub,2013-03-26 05:28:00,
2013-03-26 01:33:00,37.8,24.3,29.84,WSW,257,3.0,9.0,58,0.00,,,0.00,meteohub,2013-03-26 05:33:00,
2013-03-26 01:38:00,37.8,24.3,29.84,WSW,243,4.0,9.0,58,0.00,,,0.00,meteohub,2013-03-26 05:38:00,
2013-03-26 01:43:00,37.8,24.3,29.84,SW,233,2.0,9.0,58,0.00,,,0.00,meteohub,2013-03-26 05:43:00,
2013-03-26 01:48:00,37.8,24.8,29.84,West,264,3.0,9.0,59,0.00,,,0.00,meteohub,2013-03-26 05:48:00,
2013-03-26 01:53:00,37.8,24.8,29.85,WSW,255,2.0,7.0,59,0.00,,,0.00,meteohub,2013-03-26 05:53:00,
2013-03-26 01:58:00,37.8,24.8,29.85,West,262,3.0,7.0,59,0.00,,,0.00,meteohub,2013-03-26 05:58:00,
2013-03-26 02:03:00,37.8,24.8,29.85,WSW,246,4.0,6.0,59,0.00,,,0.00,meteohub,2013-03-26 06:03:00,
2013-03-26 02:08:00,37.8,24.8,29.85,WSW,242,1.0,6.0,59,0.00,,,0.00,meteohub,2013-03-26 06:08:00,
2013-03-26 02:14:00,37.8,24.8,29.85,WSW,238,3.0,6.0,59,0.00,,,0.00,meteohub,2013-03-26 06:14:00,
2013-03-26 02:19:00,37.8,25.2,29.85,West,273,3.0,5.0,60,0.00,,,0.00,meteohub,2013-03-26 06:19:00,
2013-03-26 02:24:00,37.8,24.8,29.85,WSW,250,3.0,5.0,59,0.00,,,0.00,meteohub,2013-03-26 06:24:00,
2013-03-26 02:29:00,37.8,24.8,29.85,WSW,244,3.0,5.0,59,0.00,,,0.00,meteohub,2013-03-26 06:29:00,
2013-03-26 02:34:00,37.8,24.8,29.85,WNW,286,1.0,5.0,59,0.00,,,0.00,meteohub,2013-03-26 06:34:00,
2013-03-26 02:39:00,37.8,24.8,29.85,SW,229,3.0,5.0,59,0.00,,,0.00,meteohub,2013-03-26 06:39:00,
2013-03-26 02:44:00,37.8,24.8,29.85,SW,230,2.0,6.0,59,0.00,,,0.00,meteohub,2013-03-26 06:44:00,
2013-03-26 02:50:00,37.8,24.8,29.86,WSW,243,4.0,6.0,59,0.00,,,0.00,meteohub,2013-03-26 06:50:00,
2013-03-26 02:55:00,37.8,24.8,29.85,West,265,4.0,6.0,59,0.00,,,0.00,meteohub,2013-03-26 06:55:00,
2013-03-26 03:00:00,37.8,24.8,29.86,West,278,1.0,6.0,59,0.00,,,0.00,meteohub,2013-03-26 07:00:00,
2013-03-26 03:05:00,37.6,25.0,29.85,WSW,252,2.0,5.0,60,0.00,,,0.00,meteohub,2013-03-26 07:05:00,
2013-03-26 03:10:00,37.6,25.0,29.85,WSW,250,2.0,5.0,60,0.00,,,0.00,meteohub,2013-03-26 07:10:00,
2013-03-26 03:15:00,37.4,24.8,29.85,WNW,286,3.0,6.0,60,0.00,,,0.00,meteohub,2013-03-26 07:15:00,
2013-03-26 03:20:00,37.4,24.8,29.86,SW,234,3.0,6.0,60,0.00,,,0.00,meteohub,2013-03-26 07:20:00,
2013-03-26 03:25:00,37.2,24.6,29.85,WSW,249,2.0,6.0,60,0.00,,,0.00,meteohub,2013-03-26 07:25:00,
2013-03-26 03:30:00,37.0,24.4,29.86,West,279,1.0,5.0,60,0.00,,,0.00,meteohub,2013-03-26 07:30:00,
2013-03-26 03:35:00,37.0,24.8,29.85,West,265,2.0,5.0,61,0.00,,,0.00,meteohub,2013-03-26 07:35:00,
2013-03-26 03:40:00,36.7,25.0,29.85,WSW,254,2.0,5.0,62,0.00,,,0.00,meteohub,2013-03-26 07:40:00,
2013-03-26 03:45:00,36.5,24.8,29.86,West,260,1.0,4.0,62,0.00,,,0.00,meteohub,2013-03-26 07:45:00,
2013-03-26 03:51:00,36.3,24.6,29.86,SW,236,2.0,4.0,62,0.00,,,0.00,meteohub,2013-03-26 07:51:00,
2013-03-26 03:56:00,36.3,24.6,29.85,WSW,257,2.0,4.0,62,0.00,,,0.00,meteohub,2013-03-26 07:56:00,
2013-03-26 04:01:00,36.1,24.8,29.86,WSW,256,2.0,4.0,63,0.00,,,0.00,meteohub,2013-03-26 08:01:00,
2013-03-26 04:07:00,35.8,25.2,29.86,WSW,240,1.0,4.0,65,0.00,,,0.00,meteohub,2013-03-26 08:07:00,
2013-03-26 04:12:00,35.8,24.8,29.86,WSW,252,2.0,4.0,64,0.00,,,0.00,meteohub,2013-03-26 08:12:00,
2013-03-26 04:17:00,35.6,25.0,29.86,West,263,2.0,4.0,65,0.00,,,0.00,meteohub,2013-03-26 08:17:00,
2013-03-26 04:22:00,35.4,25.2,29.86,WSW,245,0.0,4.0,66,0.00,,,0.00,meteohub,2013-03-26 08:22:00,
2013-03-26 04:27:00,35.2,25.0,29.86,WNW,302,1.0,4.0,66,0.00,,,0.00,meteohub,2013-03-26 08:27:00,
2013-03-26 04:32:00,35.2,25.0,29.86,WSW,238,1.0,4.0,66,0.00,,,0.00,meteohub,2013-03-26 08:32:00,
2013-03-26 04:37:00,35.1,25.2,29.86,WSW,245,2.0,4.0,67,0.00,,,0.00,meteohub,2013-03-26 08:37:00,
2013-03-26 04:42:00,34.9,25.0,29.86,WSW,245,2.0,4.0,67,0.00,,,0.00,meteohub,2013-03-26 08:42:00,
2013-03-26 04:47:00,34.9,25.3,29.86,West,265,3.0,3.0,68,0.00,,,0.00,meteohub,2013-03-26 08:47:00,
2013-03-26 04:52:00,34.9,25.3,29.86,West,271,2.0,4.0,68,0.00,,,0.00,meteohub,2013-03-26 08:52:00,
2013-03-26 04:57:00,34.9,25.3,29.87,West,260,1.0,4.0,68,0.00,,,0.00,meteohub,2013-03-26 08:57:00,
2013-03-26 05:03:00,34.9,25.3,29.87,West,272,2.0,4.0,68,0.00,,,0.00,meteohub,2013-03-26 09:03:00,
2013-03-26 05:08:00,34.7,25.2,29.86,West,265,1.0,4.0,68,0.00,,,0.00,meteohub,2013-03-26 09:08:00,
2013-03-26 05:13:00,34.5,25.3,29.87,West,270,2.0,4.0,69,0.00,,,0.00,meteohub,2013-03-26 09:13:00,
2013-03-26 05:18:00,34.3,25.2,29.87,West,277,0.0,3.0,69,0.00,,,0.00,meteohub,2013-03-26 09:18:00,
2013-03-26 05:23:00,34.2,25.3,29.87,West,263,1.0,3.0,70,0.00,,,0.00,meteohub,2013-03-26 09:23:00,
2013-03-26 05:28:00,34.2,25.3,29.87,West,269,2.0,3.0,70,0.00,,,0.00,meteohub,2013-03-26 09:28:00,
2013-03-26 05:33:00,34.2,25.3,29.87,West,278,1.0,3.0,70,0.00,,,0.00,meteohub,2013-03-26 09:33:00,
2013-03-26 05:38:00,34.0,25.2,29.87,West,281,1.0,3.0,70,0.00,,,0.00,meteohub,2013-03-26 09:38:00,
2013-03-26 05:43:00,34.2,25.3,29.87,West,266,1.0,3.0,70,0.00,,,0.00,meteohub,2013-03-26 09:43:00,
2013-03-26 05:48:00,34.0,25.2,29.87,West,275,2.0,3.0,70,0.00,,,0.00,meteohub,2013-03-26 09:48:00,
2013-03-26 05:53:00,34.0,25.2,29.88,West,267,1.0,3.0,70,0.00,,,0.00,meteohub,2013-03-26 09:53:00,
2013-03-26 05:58:00,33.8,25.0,29.88,NW,312,2.0,3.0,70,0.00,,,0.00,meteohub,2013-03-26 09:58:00,
2013-03-26 06:04:00,33.8,25.0,29.88,West,265,1.0,3.0,70,0.00,,,0.00,meteohub,2013-03-26 10:04:00,
2013-03-26 06:09:00,33.6,24.8,29.88,West,267,1.0,3.0,70,0.00,,,0.00,meteohub,2013-03-26 10:09:00,
2013-03-26 06:14:00,33.6,25.2,29.88,West,267,0.0,3.0,71,0.00,,,0.00,meteohub,2013-03-26 10:14:00,
2013-03-26 06:19:00,33.4,25.0,29.88,West,267,1.0,3.0,71,0.00,,,0.00,meteohub,2013-03-26 10:19:00,
2013-03-26 06:24:00,33.4,25.0,29.88,West,270,2.0,2.0,71,0.00,,,0.00,meteohub,2013-03-26 10:24:00,
2013-03-26 06:29:00,33.4,25.0,29.89,West,273,0.0,2.0,71,0.00,,,0.00,meteohub,2013-03-26 10:29:00,
2013-03-26 06:34:00,33.4,25.0,29.89,West,279,0.0,2.0,71,0.00,,,0.00,meteohub,2013-03-26 10:34:00,
2013-03-26 06:39:00,33.3,24.8,29.89,West,281,0.0,3.0,71,0.00,,,0.00,meteohub,2013-03-26 10:39:00,
2013-03-26 06:44:00,33.1,25.0,29.89,West,281,1.0,3.0,72,0.00,,,0.00,meteohub,2013-03-26 10:44:00,
2013-03-26 06:49:00,33.1,25.0,29.89,West,265,1.0,2.0,72,0.00,,,0.00,meteohub,2013-03-26 10:49:00,
2013-03-26 06:55:00,33.1,25.0,29.89,West,274,1.0,2.0,72,0.00,,,0.00,meteohub,2013-03-26 10:55:00,
2013-03-26 07:00:00,33.1,25.0,29.89,West,275,1.0,2.0,72,0.00,,,0.00,meteohub,2013-03-26 11:00:00,
2013-03-26 07:05:00,32.9,24.8,29.89,West,278,1.0,2.0,72,0.00,,,0.00,meteohub,2013-03-26 11:05:00,
2013-03-26 07:10:00,32.7,24.6,29.89,WNW,283,2.0,2.0,72,0.00,,,0.00,meteohub,2013-03-26 11:10:00,
2013-03-26 07:15:00,32.7,24.6,29.89,West,281,1.0,2.0,72,0.00,,,0.00,meteohub,2013-03-26 11:15:00,
2013-03-26 07:20:00,32.7,24.6,29.89,West,264,1.0,2.0,72,0.00,,,0.00,meteohub,2013-03-26 11:20:00,
2013-03-26 07:26:00,32.7,24.6,29.89,West,266,0.0,2.0,72,0.00,,,0.00,meteohub,2013-03-26 11:26:00,
2013-03-26 07:31:00,32.5,24.8,29.90,West,271,1.0,2.0,73,0.00,,,0.00,meteohub,2013-03-26 11:31:00,
2013-03-26 07:36:00,32.7,25.0,29.90,West,269,1.0,2.0,73,0.00,,,0.00,meteohub,2013-03-26 11:36:00,
2013-03-26 07:41:00,32.7,25.0,29.90,West,281,1.0,2.0,73,0.00,,,0.00,meteohub,2013-03-26 11:41:00,
2013-03-26 07:46:00,33.1,25.0,29.90,West,279,2.0,3.0,72,0.00,,,0.00,meteohub,2013-03-26 11:46:00,
2013-03-26 07:51:00,33.3,25.2,29.90,West,271,1.0,3.0,72,0.00,,,0.00,meteohub,2013-03-26 11:51:00,
2013-03-26 07:56:00,33.4,25.3,29.91,WNW,289,1.0,3.0,72,0.00,,,0.00,meteohub,2013-03-26 11:56:00,
2013-03-26 08:01:00,33.4,25.3,29.91,West,276,0.0,3.0,72,0.00,,,0.00,meteohub,2013-03-26 12:01:00,
2013-03-26 08:06:00,33.8,25.3,29.91,WNW,286,2.0,3.0,71,0.00,,,0.00,meteohub,2013-03-26 12:06:00,
2013-03-26 08:12:00,34.2,25.7,29.91,West,275,1.0,3.0,71,0.00,,,0.00,meteohub,2013-03-26 12:12:00,
2013-03-26 08:17:00,34.3,25.5,29.91,West,273,2.0,3.0,70,0.00,,,0.00,meteohub,2013-03-26 12:17:00,
2013-03-26 08:22:00,34.7,25.9,29.91,West,274,1.0,4.0,70,0.00,,,0.00,meteohub,2013-03-26 12:22:00,
2013-03-26 08:27:00,35.2,26.1,29.92,West,275,1.0,4.0,69,0.00,,,0.00,meteohub,2013-03-26 12:27:00,
2013-03-26 08:32:00,35.4,26.2,29.91,West,281,2.0,3.0,69,0.00,,,0.00,meteohub,2013-03-26 12:32:00,
2013-03-26 08:37:00,36.0,26.4,29.91,WSW,256,2.0,3.0,68,0.00,,,0.00,meteohub,2013-03-26 12:37:00,
2013-03-26 08:42:00,36.1,26.2,29.92,WSW,251,2.0,4.0,67,0.00,,,0.00,meteohub,2013-03-26 12:42:00,
2013-03-26 08:47:00,36.7,26.4,29.92,West,277,1.0,4.0,66,0.00,,,0.00,meteohub,2013-03-26 12:47:00,
2013-03-26 08:52:00,37.2,27.0,29.92,West,277,2.0,4.0,66,0.00,,,0.00,meteohub,2013-03-26 12:52:00,
2013-03-26 08:57:00,37.8,27.1,29.92,West,261,0.0,4.0,65,0.00,,,0.00,meteohub,2013-03-26 12:57:00,
2013-03-26 09:02:00,38.5,27.7,29.92,NW,309,1.0,4.0,65,0.00,,,0.00,meteohub,2013-03-26 13:02:00,
2013-03-26 09:07:00,38.8,26.6,29.92,West,269,1.0,4.0,61,0.00,,,0.00,meteohub,2013-03-26 13:07:00,
2013-03-26 09:12:00,39.6,27.1,29.93,WNW,284,1.0,4.0,61,0.00,,,0.00,meteohub,2013-03-26 13:12:00,
2013-03-26 09:17:00,40.1,27.3,29.93,WNW,296,2.0,4.0,60,0.00,,,0.00,meteohub,2013-03-26 13:17:00,
2013-03-26 09:23:00,40.6,27.0,29.93,WNW,299,0.0,6.0,58,0.00,,,0.00,meteohub,2013-03-26 13:23:00,
2013-03-26 09:28:00,40.6,26.2,29.93,WNW,286,6.0,6.0,56,0.00,,,0.00,meteohub,2013-03-26 13:28:00,
2013-03-26 09:33:00,40.3,26.2,29.93,WSW,257,3.0,6.0,57,0.00,,,0.00,meteohub,2013-03-26 13:33:00,
2013-03-26 09:38:00,40.8,26.8,29.93,West,265,3.0,6.0,57,0.00,,,0.00,meteohub,2013-03-26 13:38:00,
2013-03-26 09:43:00,41.5,27.0,29.93,WNW,292,2.0,6.0,56,0.00,,,0.00,meteohub,2013-03-26 13:43:00,
2013-03-26 09:48:00,42.3,26.4,29.93,WSW,250,2.0,5.0,53,0.00,,,0.00,meteohub,2013-03-26 13:48:00,
2013-03-26 09:53:00,42.4,26.6,29.94,WSW,248,2.0,7.0,53,0.00,,,0.00,meteohub,2013-03-26 13:53:00,
2013-03-26 09:58:00,42.6,26.2,29.94,NW,312,3.0,7.0,52,0.00,,,0.00,meteohub,2013-03-26 13:58:00,
2013-03-26 10:03:00,43.0,26.6,29.94,WNW,282,1.0,7.0,52,0.00,,,0.00,meteohub,2013-03-26 14:03:00,
2013-03-26 10:08:00,43.0,26.6,29.94,West,264,5.0,7.0,52,0.00,,,0.00,meteohub,2013-03-26 14:08:00,
2013-03-26 10:14:00,43.0,26.6,29.94,SW,234,2.0,7.0,52,0.00,,,0.00,meteohub,2013-03-26 14:14:00,
2013-03-26 10:19:00,43.5,27.5,29.94,NNW,329,3.0,9.0,53,0.00,,,0.00,meteohub,2013-03-26 14:19:00,
2013-03-26 10:24:00,44.2,27.3,29.94,NNW,332,5.0,9.0,51,0.00,,,0.00,meteohub,2013-03-26 14:24:00,
2013-03-26 10:29:00,44.2,27.3,29.94,WSW,257,4.0,10.0,51,0.00,,,0.00,meteohub,2013-03-26 14:29:00,
2013-03-26 10:34:00,44.1,26.6,29.94,NW,311,1.0,10.0,50,0.00,,,0.00,meteohub,2013-03-26 14:34:00,
2013-03-26 10:39:00,44.4,27.5,29.94,SW,223,4.0,10.0,51,0.00,,,0.00,meteohub,2013-03-26 14:39:00,
2013-03-26 10:44:00,44.8,27.3,29.94,WSW,245,4.0,7.0,50,0.00,,,0.00,meteohub,2013-03-26 14:44:00,
2013-03-26 10:49:00,44.8,27.3,29.95,NW,325,3.0,7.0,50,0.00,,,0.00,meteohub,2013-03-26 14:49:00,
2013-03-26 10:54:00,45.1,27.1,29.95,NNW,336,4.0,9.0,49,0.00,,,0.00,meteohub,2013-03-26 14:54:00,
2013-03-26 10:59:00,45.3,26.8,29.95,NNW,343,5.0,9.0,48,0.00,,,0.00,meteohub,2013-03-26 14:59:00,
2013-03-26 11:05:00,45.7,28.6,29.95,NW,305,3.0,9.0,51,0.00,,,0.00,meteohub,2013-03-26 15:05:00,
2013-03-26 11:10:00,45.1,26.6,29.95,SW,222,3.0,8.0,48,0.00,,,0.00,meteohub,2013-03-26 15:10:00,
2013-03-26 11:15:00,45.5,27.5,29.95,NW,315,4.0,10.0,49,0.00,,,0.00,meteohub,2013-03-26 15:15:00,
2013-03-26 11:20:00,46.2,26.6,29.96,West,274,8.0,10.0,46,0.00,,,0.00,meteohub,2013-03-26 15:20:00,
2013-03-26 11:25:00,46.0,27.0,29.95,NNW,332,0.0,10.0,47,0.00,,,0.00,meteohub,2013-03-26 15:25:00,
2013-03-26 11:30:00,46.6,27.5,29.95,SW,228,5.0,11.0,47,0.00,,,0.00,meteohub,2013-03-26 15:30:00,
2013-03-26 11:35:00,47.1,28.4,29.96,West,269,2.0,11.0,48,0.00,,,0.00,meteohub,2013-03-26 15:35:00,
2013-03-26 11:40:00,46.8,26.6,29.96,SSW,213,1.0,7.0,45,0.00,,,0.00,meteohub,2013-03-26 15:40:00,
2013-03-26 11:45:00,46.9,27.3,29.96,NW,323,4.0,7.0,46,0.00,,,0.00,meteohub,2013-03-26 15:45:00,
2013-03-26 11:50:00,47.5,27.1,29.96,NW,306,6.0,7.0,45,0.00,,,0.00,meteohub,2013-03-26 15:50:00,
2013-03-26 11:55:00,46.9,27.7,29.96,WNW,301,5.0,9.0,47,0.00,,,0.00,meteohub,2013-03-26 15:55:00,
2013-03-26 12:00:00,47.1,26.8,29.96,West,261,3.0,9.0,45,0.00,,,0.00,meteohub,2013-03-26 16:00:00,
2013-03-26 12:06:00,46.8,27.7,29.95,West,261,5.0,9.0,47,0.00,,,0.00,meteohub,2013-03-26 16:06:00,
2013-03-26 12:11:00,47.3,27.5,29.95,NNW,333,3.0,9.0,46,0.00,,,0.00,meteohub,2013-03-26 16:11:00,
2013-03-26 12:17:00,46.8,27.1,29.95,West,271,1.0,9.0,46,0.00,,,0.00,meteohub,2013-03-26 16:17:00,
2013-03-26 12:22:00,46.4,27.9,29.95,WSW,242,2.0,9.0,48,0.00,,,0.00,meteohub,2013-03-26 16:22:00,
2013-03-26 12:27:00,46.6,27.5,29.95,West,272,3.0,8.0,47,0.00,,,0.00,meteohub,2013-03-26 16:27:00,
2013-03-26 12:32:00,46.0,27.0,29.96,WNW,298,3.0,7.0,47,0.00,,,0.00,meteohub,2013-03-26 16:32:00,
2013-03-26 12:37:00,45.9,27.3,29.96,NW,306,5.0,7.0,48,0.00,,,0.00,meteohub,2013-03-26 16:37:00,
2013-03-26 12:42:00,46.0,27.0,29.96,West,272,3.0,7.0,47,0.00,,,0.00,meteohub,2013-03-26 16:42:00,
2013-03-26 12:47:00,46.4,26.8,29.96,WSW,244,2.0,7.0,46,0.00,,,0.00,meteohub,2013-03-26 16:47:00,
2013-03-26 12:52:00,46.0,27.0,29.96,WNW,298,1.0,7.0,47,0.00,,,0.00,meteohub,2013-03-26 16:52:00,
2013-03-26 12:57:00,46.2,27.7,29.96,WSW,255,2.0,7.0,48,0.00,,,0.00,meteohub,2013-03-26 16:57:00,
2013-03-26 13:03:00,46.2,27.7,29.96,West,259,3.0,6.0,48,0.00,,,0.00,meteohub,2013-03-26 17:03:00,
2013-03-26 13:08:00,46.0,27.0,29.96,NNW,333,1.0,6.0,47,0.00,,,0.00,meteohub,2013-03-26 17:08:00,
2013-03-26 13:13:00,45.7,26.1,29.96,West,280,1.0,5.0,46,0.00,,,0.00,meteohub,2013-03-26 17:13:00,
2013-03-26 13:18:00,45.9,26.8,29.96,West,266,0.0,5.0,47,0.00,,,0.00,meteohub,2013-03-26 17:18:00,
2013-03-26 13:23:00,45.7,26.6,29.96,WNW,284,3.0,6.0,47,0.00,,,0.00,meteohub,2013-03-26 17:23:00,
2013-03-26 13:28:00,45.9,26.8,29.96,NNW,334,2.0,6.0,47,0.00,,,0.00,meteohub,2013-03-26 17:28:00,
2013-03-26 13:33:00,45.7,26.6,29.96,SSW,210,1.0,6.0,47,0.00,,,0.00,meteohub,2013-03-26 17:33:00,
2013-03-26 13:38:00,45.7,27.1,29.96,NW,305,0.0,6.0,48,0.00,,,0.00,meteohub,2013-03-26 17:38:00,
2013-03-26 13:43:00,45.7,27.1,29.96,WNW,294,1.0,6.0,48,0.00,,,0.00,meteohub,2013-03-26 17:43:00,
2013-03-26 13:48:00,45.7,27.7,29.96,West,273,4.0,6.0,49,0.00,,,0.00,meteohub,2013-03-26 17:48:00,
2013-03-26 13:53:00,45.3,26.8,29.96,NW,319,1.0,6.0,48,0.00,,,0.00,meteohub,2013-03-26 17:53:00,
2013-03-26 13:59:00,45.3,26.8,29.96,WSW,254,1.0,6.0,48,0.00,,,0.00,meteohub,2013-03-26 17:59:00,
2013-03-26 14:04:00,45.3,27.9,29.96,SW,233,3.0,5.0,50,0.00,,,0.00,meteohub,2013-03-26 18:04:00,
2013-03-26 14:09:00,45.5,27.5,29.96,NW,319,3.0,6.0,49,0.00,,,0.00,meteohub,2013-03-26 18:09:00,
2013-03-26 14:14:00,45.5,27.5,29.96,NW,319,2.0,6.0,49,0.00,,,0.00,meteohub,2013-03-26 18:14:00,
2013-03-26 14:19:00,45.3,27.3,29.96,WSW,250,2.0,8.0,49,0.00,,,0.00,meteohub,2013-03-26 18:19:00,
2013-03-26 14:24:00,45.7,27.1,29.96,NW,317,2.0,8.0,48,0.00,,,0.00,meteohub,2013-03-26 18:24:00,
2013-03-26 14:29:00,45.3,26.8,29.96,WNW,286,1.0,8.0,48,0.00,,,0.00,meteohub,2013-03-26 18:29:00,
2013-03-26 14:34:00,45.7,27.1,29.96,NW,306,2.0,11.0,48,0.00,,,0.00,meteohub,2013-03-26 18:34:00,
2013-03-26 14:39:00,46.0,27.9,29.96,WNW,298,3.0,11.0,49,0.00,,,0.00,meteohub,2013-03-26 18:39:00,
2013-03-26 14:44:00,46.2,27.7,29.96,WNW,291,2.0,11.0,48,0.00,,,0.00,meteohub,2013-03-26 18:44:00,
2013-03-26 14:49:00,46.6,27.9,29.96,NW,304,4.0,7.0,48,0.00,,,0.00,meteohub,2013-03-26 18:49:00,
2013-03-26 14:54:00,46.6,27.9,29.96,NW,310,1.0,7.0,48,0.00,,,0.00,meteohub,2013-03-26 18:54:00,
2013-03-26 14:59:00,46.9,28.2,29.96,West,279,4.0,8.0,48,0.00,,,0.00,meteohub,2013-03-26 18:59:00,
2013-03-26 15:05:00,46.6,27.9,29.96,NNW,346,2.0,8.0,48,0.00,,,0.00,meteohub,2013-03-26 19:05:00,
2013-03-26 15:10:00,46.8,27.7,29.96,NW,309,4.0,8.0,47,0.00,,,0.00,meteohub,2013-03-26 19:10:00,
2013-03-26 15:15:00,46.6,27.5,29.96,NW,314,0.0,8.0,47,0.00,,,0.00,meteohub,2013-03-26 19:15:00,
2013-03-26 15:20:00,46.2,26.6,29.96,West,261,2.0,8.0,46,0.00,,,0.00,meteohub,2013-03-26 19:20:00,
2013-03-26 15:25:00,46.8,27.1,29.96,WNW,282,1.0,12.0,46,0.00,,,0.00,meteohub,2013-03-26 19:25:00,
2013-03-26 15:30:00,46.9,27.7,29.96,NW,304,2.0,8.0,47,0.00,,,0.00,meteohub,2013-03-26 19:30:00,
2013-03-26 15:35:00,47.3,27.5,29.96,West,259,2.0,8.0,46,0.00,,,0.00,meteohub,2013-03-26 19:35:00,
2013-03-26 15:40:00,47.5,28.2,29.96,NW,315,4.0,8.0,47,0.00,,,0.00,meteohub,2013-03-26 19:40:00,
2013-03-26 15:46:00,47.1,27.3,29.96,West,275,2.0,8.0,46,0.00,,,0.00,meteohub,2013-03-26 19:46:00,
2013-03-26 15:51:00,46.6,27.0,29.96,NNW,333,3.0,9.0,46,0.00,,,0.00,meteohub,2013-03-26 19:51:00,
2013-03-26 15:56:00,46.6,27.5,29.96,WNW,302,4.0,9.0,47,0.00,,,0.00,meteohub,2013-03-26 19:56:00,
2013-03-26 16:01:00,47.5,28.2,29.96,WNW,297,5.0,9.0,47,0.00,,,0.00,meteohub,2013-03-26 20:01:00,
2013-03-26 16:06:00,47.3,27.0,29.96,WNW,292,4.0,8.0,45,0.00,,,0.00,meteohub,2013-03-26 20:06:00,
2013-03-26 16:11:00,46.9,27.3,29.96,West,271,1.0,9.0,46,0.00,,,0.00,meteohub,2013-03-26 20:11:00,
2013-03-26 16:16:00,46.8,27.1,29.96,South,190,4.0,9.0,46,0.00,,,0.00,meteohub,2013-03-26 20:16:00,
2013-03-26 16:22:00,46.8,27.1,29.96,SW,232,3.0,9.0,46,0.00,,,0.00,meteohub,2013-03-26 20:22:00,
2013-03-26 16:27:00,46.9,26.8,29.97,WNW,303,1.0,8.0,45,0.00,,,0.00,meteohub,2013-03-26 20:27:00,
2013-03-26 16:32:00,47.1,26.2,29.97,WNW,300,4.0,8.0,44,0.00,,,0.00,meteohub,2013-03-26 20:32:00,
2013-03-26 16:37:00,46.9,26.2,29.97,WSW,238,3.0,12.0,44,0.00,,,0.00,meteohub,2013-03-26 20:37:00,
2013-03-26 16:42:00,47.1,26.8,29.97,West,279,2.0,12.0,45,0.00,,,0.00,meteohub,2013-03-26 20:42:00,
2013-03-26 16:47:00,47.1,25.7,29.97,NW,317,2.0,12.0,43,0.00,,,0.00,meteohub,2013-03-26 20:47:00,
2013-03-26 16:52:00,47.3,27.0,29.97,WSW,255,5.0,8.0,45,0.00,,,0.00,meteohub,2013-03-26 20:52:00,
2013-03-26 16:57:00,47.1,26.8,29.97,West,275,3.0,8.0,45,0.00,,,0.00,meteohub,2013-03-26 20:57:00,
2013-03-26 17:02:00,47.3,26.4,29.97,West,271,3.0,8.0,44,0.00,,,0.00,meteohub,2013-03-26 21:02:00,
2013-03-26 17:07:00,47.1,26.2,29.97,West,267,2.0,6.0,44,0.00,,,0.00,meteohub,2013-03-26 21:07:00,
2013-03-26 17:12:00,46.9,26.2,29.97,NW,307,3.0,6.0,44,0.00,,,0.00,meteohub,2013-03-26 21:12:00,
2013-03-26 17:18:00,46.8,26.1,29.98,WNW,295,3.0,7.0,44,0.00,,,0.00,meteohub,2013-03-26 21:18:00,
2013-03-26 17:23:00,46.8,26.6,29.98,WSW,244,3.0,7.0,45,0.00,,,0.00,meteohub,2013-03-26 21:23:00,
2013-03-26 17:28:00,46.6,26.4,29.98,WSW,256,4.0,7.0,45,0.00,,,0.00,meteohub,2013-03-26 21:28:00,
2013-03-26 17:33:00,46.4,26.2,29.98,West,270,1.0,4.0,45,0.00,,,0.00,meteohub,2013-03-26 21:33:00,
2013-03-26 17:38:00,46.2,26.6,29.98,NW,324,4.0,4.0,46,0.00,,,0.00,meteohub,2013-03-26 21:38:00,
2013-03-26 17:43:00,46.2,26.6,29.99,West,261,3.0,6.0,46,0.00,,,0.00,meteohub,2013-03-26 21:43:00,
2013-03-26 17:48:00,46.0,26.4,29.99,WNW,291,2.0,8.0,46,0.00,,,0.00,meteohub,2013-03-26 21:48:00,
2013-03-26 17:53:00,46.0,25.9,29.99,NW,321,1.0,8.0,45,0.00,,,0.00,meteohub,2013-03-26 21:53:00,
2013-03-26 17:58:00,45.9,25.7,29.99,NW,323,3.0,8.0,45,0.00,,,0.00,meteohub,2013-03-26 21:58:00,
2013-03-26 18:03:00,45.9,25.7,30.00,West,274,5.0,7.0,45,0.00,,,0.00,meteohub,2013-03-26 22:03:00,
2013-03-26 18:09:00,45.7,26.1,30.00,WSW,242,1.0,7.0,46,0.00,,,0.00,meteohub,2013-03-26 22:09:00,
2013-03-26 18:14:00,45.5,25.9,30.00,West,260,2.0,9.0,46,0.00,,,0.00,meteohub,2013-03-26 22:14:00,
2013-03-26 18:19:00,45.7,26.6,30.00,WNW,302,0.0,9.0,47,0.00,,,0.00,meteohub,2013-03-26 22:19:00,
2013-03-26 18:24:00,46.0,26.4,30.00,NW,309,0.0,6.0,46,0.00,,,0.00,meteohub,2013-03-26 22:24:00,
2013-03-26 18:29:00,46.6,27.0,30.00,West,259,4.0,4.0,46,0.00,,,0.00,meteohub,2013-03-26 22:29:00,
2013-03-26 18:34:00,46.2,26.6,30.00,WNW,300,2.0,7.0,46,0.00,,,0.00,meteohub,2013-03-26 22:34:00,
2013-03-26 18:39:00,46.0,26.4,30.01,WSW,256,2.0,7.0,46,0.00,,,0.00,meteohub,2013-03-26 22:39:00,
2013-03-26 18:44:00,45.9,26.8,30.01,WSW,239,4.0,7.0,47,0.00,,,0.00,meteohub,2013-03-26 22:44:00,
2013-03-26 18:50:00,45.9,26.8,30.01,NW,320,2.0,5.0,47,0.00,,,0.00,meteohub,2013-03-26 22:50:00,
2013-03-26 18:55:00,45.7,26.1,30.01,WNW,293,2.0,4.0,46,0.00,,,0.00,meteohub,2013-03-26 22:55:00,
2013-03-26 19:00:00,45.7,26.1,30.02,WNW,301,1.0,5.0,46,0.00,,,0.00,meteohub,2013-03-26 23:00:00,
2013-03-26 19:05:00,45.5,26.4,30.02,NW,315,1.0,5.0,47,0.00,,,0.00,meteohub,2013-03-26 23:05:00,
2013-03-26 19:10:00,45.3,26.2,30.02,WSW,258,1.0,5.0,47,0.00,,,0.00,meteohub,2013-03-26 23:10:00,
2013-03-26 19:15:00,45.3,26.8,30.02,NNW,336,2.0,5.0,48,0.00,,,0.00,meteohub,2013-03-26 23:15:00,
2013-03-26 19:20:00,45.1,26.6,30.03,NW,323,0.0,6.0,48,0.00,,,0.00,meteohub,2013-03-26 23:20:00,
2013-03-26 19:25:00,45.0,27.0,30.03,NW,310,3.0,6.0,49,0.00,,,0.00,meteohub,2013-03-26 23:25:00,
2013-03-26 19:30:00,45.0,26.4,30.03,WSW,242,0.0,6.0,48,0.00,,,0.00,meteohub,2013-03-26 23:30:00,
2013-03-26 19:35:00,44.8,26.2,30.03,West,270,2.0,7.0,48,0.00,,,0.00,meteohub,2013-03-26 23:35:00,
2013-03-26 19:40:00,44.8,26.2,30.03,West,269,0.0,6.0,48,0.00,,,0.00,meteohub,2013-03-26 23:40:00,
2013-03-26 19:45:00,44.6,26.6,30.04,WSW,246,0.0,4.0,49,0.00,,,0.00,meteohub,2013-03-26 23:45:00,
2013-03-26 19:50:00,44.4,26.4,30.04,WSW,258,1.0,4.0,49,0.00,,,0.00,meteohub,2013-03-26 23:50:00,
2013-03-26 19:55:00,44.2,26.8,30.04,West,263,2.0,3.0,50,0.00,,,0.00,meteohub,2013-03-26 23:55:00,
2013-03-26 20:00:00,44.2,26.2,30.04,WSW,254,1.0,4.0,49,0.00,,,0.00,meteohub,2013-03-27 00:00:00,
2013-03-26 20:06:00,44.2,26.8,30.04,West,259,1.0,4.0,50,0.00,,,0.00,meteohub,2013-03-27 00:06:00,
2013-03-26 20:12:00,44.2,26.2,30.05,West,271,2.0,4.0,49,0.00,,,0.00,meteohub,2013-03-27 00:12:00,
2013-03-26 20:17:00,44.1,26.6,30.05,WNW,299,1.0,3.0,50,0.00,,,0.00,meteohub,2013-03-27 00:17:00,
2013-03-26 20:22:00,44.1,26.6,30.05,West,277,2.0,3.0,50,0.00,,,0.00,meteohub,2013-03-27 00:22:00,
2013-03-26 20:27:00,43.9,26.4,30.06,West,277,0.0,3.0,50,0.00,,,0.00,meteohub,2013-03-27 00:27:00,
2013-03-26 20:32:00,43.5,26.1,30.06,WSW,257,1.0,3.0,50,0.00,,,0.00,meteohub,2013-03-27 00:32:00,
2013-03-26 20:37:00,43.2,26.2,30.06,West,268,2.0,3.0,51,0.00,,,0.00,meteohub,2013-03-27 00:37:00,
2013-03-26 20:42:00,43.0,26.6,30.06,West,273,2.0,3.0,52,0.00,,,0.00,meteohub,2013-03-27 00:42:00,
2013-03-26 20:47:00,42.8,25.9,30.06,West,259,4.0,7.0,51,0.00,,,0.00,meteohub,2013-03-27 00:47:00,
2013-03-26 20:53:00,42.8,25.5,30.06,West,259,2.0,7.0,50,0.00,,,0.00,meteohub,2013-03-27 00:53:00,
2013-03-26 20:58:00,42.6,25.3,30.07,West,268,2.0,8.0,50,0.00,,,0.00,meteohub,2013-03-27 00:58:00,
2013-03-26 21:03:00,42.4,25.2,30.07,WNW,285,1.0,8.0,50,0.00,,,0.00,meteohub,2013-03-27 01:03:00,
2013-03-26 21:08:00,42.3,25.3,30.07,West,260,1.0,8.0,51,0.00,,,0.00,meteohub,2013-03-27 01:08:00,
2013-03-26 21:13:00,41.9,25.5,30.08,WNW,286,1.0,7.0,52,0.00,,,0.00,meteohub,2013-03-27 01:13:00,
2013-03-26 21:18:00,41.7,25.3,30.08,West,271,2.0,5.0,52,0.00,,,0.00,meteohub,2013-03-27 01:18:00,
2013-03-26 21:23:00,41.7,25.3,30.09,West,273,1.0,5.0,52,0.00,,,0.00,meteohub,2013-03-27 01:23:00,
2013-03-26 21:28:00,41.4,25.5,30.09,West,271,3.0,5.0,53,0.00,,,0.00,meteohub,2013-03-27 01:28:00,
2013-03-26 21:34:00,41.2,25.9,30.09,West,272,2.0,5.0,54,0.00,,,0.00,meteohub,2013-03-27 01:34:00,
2013-03-26 21:39:00,41.2,25.9,30.09,West,266,4.0,5.0,54,0.00,,,0.00,meteohub,2013-03-27 01:39:00,
2013-03-26 21:44:00,41.2,25.9,30.09,WNW,297,4.0,6.0,54,0.00,,,0.00,meteohub,2013-03-27 01:44:00,
2013-03-26 21:49:00,41.2,25.9,30.09,West,271,6.0,6.0,54,0.00,,,0.00,meteohub,2013-03-27 01:49:00,
2013-03-26 21:54:00,41.0,26.1,30.09,West,281,1.0,8.0,55,0.00,,,0.00,meteohub,2013-03-27 01:54:00,
2013-03-26 21:59:00,40.6,26.2,30.10,West,273,3.0,8.0,56,0.00,,,0.00,meteohub,2013-03-27 01:59:00,
2013-03-26 22:04:00,40.5,26.1,30.10,West,270,3.0,8.0,56,0.00,,,0.00,meteohub,2013-03-27 02:04:00,
2013-03-26 22:09:00,40.5,26.4,30.10,WNW,296,3.0,5.0,57,0.00,,,0.00,meteohub,2013-03-27 02:09:00,
2013-03-26 22:14:00,40.3,26.2,30.10,West,264,2.0,6.0,57,0.00,,,0.00,meteohub,2013-03-27 02:14:00,
2013-03-26 22:19:00,40.1,26.1,30.10,NW,304,2.0,7.0,57,0.00,,,0.00,meteohub,2013-03-27 02:19:00,
2013-03-26 22:24:00,39.9,26.4,30.11,WNW,296,4.0,7.0,58,0.00,,,0.00,meteohub,2013-03-27 02:24:00,
2013-03-26 22:29:00,39.9,26.4,30.11,SW,235,2.0,7.0,58,0.00,,,0.00,meteohub,2013-03-27 02:29:00,
2013-03-26 22:34:00,39.7,26.6,30.11,WNW,288,2.0,6.0,59,0.00,,,0.00,meteohub,2013-03-27 02:34:00,
2013-03-26 22:39:00,39.6,26.4,30.11,WNW,298,3.0,6.0,59,0.00,,,0.00,meteohub,2013-03-27 02:39:00,
2013-03-26 22:44:00,39.6,26.4,30.11,WNW,286,2.0,5.0,59,0.00,,,0.00,meteohub,2013-03-27 02:44:00,
2013-03-26 22:50:00,39.4,26.6,30.11,West,273,2.0,5.0,60,0.00,,,0.00,meteohub,2013-03-27 02:50:00,
2013-03-26 22:55:00,39.4,26.2,30.11,WNW,294,1.0,6.0,59,0.00,,,0.00,meteohub,2013-03-27 02:55:00,
2013-03-26 23:00:00,39.2,26.4,30.12,WNW,291,2.0,6.0,60,0.00,,,0.00,meteohub,2013-03-27 03:00:00,
2013-03-26 23:05:00,39.4,26.6,30.12,West,273,2.0,6.0,60,0.00,,,0.00,meteohub,2013-03-27 03:05:00,
2013-03-26 23:10:00,39.0,26.2,30.12,WSW,251,3.0,5.0,60,0.00,,,0.00,meteohub,2013-03-27 03:10:00,
2013-03-26 23:15:00,39.0,26.2,30.11,WSW,239,2.0,4.0,60,0.00,,,0.00,meteohub,2013-03-27 03:15:00,
2013-03-26 23:20:00,39.0,26.2,30.12,WSW,239,2.0,4.0,60,0.00,,,0.00,meteohub,2013-03-27 03:20:00,
2013-03-26 23:25:00,39.0,26.2,30.12,SW,234,3.0,8.0,60,0.00,,,0.00,meteohub,2013-03-27 03:25:00,
2013-03-26 23:30:00,39.0,26.2,30.12,WNW,288,1.0,8.0,60,0.00,,,0.00,meteohub,2013-03-27 03:30:00,
2013-03-26 23:35:00,38.8,26.1,30.12,WNW,288,1.0,5.0,60,0.00,,,0.00,meteohub,2013-03-27 03:35:00,
2013-03-26 23:41:00,38.8,26.1,30.12,West,268,1.0,5.0,60,0.00,,,0.00,meteohub,2013-03-27 03:41:00,
2013-03-26 23:46:00,38.8,26.1,30.12,West,279,2.0,5.0,60,0.00,,,0.00,meteohub,2013-03-27 03:46:00,
2013-03-26 23:51:00,38.7,26.4,30.12,WNW,295,4.0,6.0,61,0.00,,,0.00,meteohub,2013-03-27 03:51:00,
2013-03-26 23:56:00,38.5,26.2,30.12,WNW,292,3.0,6.0,61,0.00,,,0.00,meteohub,2013-03-27 03:56:00,